• In Kazakhstan
  • List of Countries
  • For 7 days
  • Water Temperature
  • Satellite Maps
  • Weather Map
  • News
  • Weather Widgets
  • user-avatar
    Login

    Hourly Weather Santiago del Estero

    Today, 20 July, Saturday

    Time Temperature Precipitation Wind Pressure Humidity
    00:00 +17°C° 0 mm 3 mps 740 mmHg 81%
    01:00 +16°C° 0 mm 3 mps 739 mmHg 85%
    02:00 +16°C° 0 mm 3 mps 739 mmHg 88%
    03:00 +16°C° 0 mm 3 mps 738 mmHg 90%
    04:00 +16°C° 0 mm 2 mps 738 mmHg 92%
    05:00 +16°C° 0 mm 2 mps 738 mmHg 94%
    06:00 +16°C° 0 mm 2 mps 738 mmHg 94%
    07:00 +16°C° 0 mm 2 mps 739 mmHg 94%
    08:00 +17°C° 0 mm 3 mps 739 mmHg 93%
    09:00 +19°C° 0 mm 4 mps 738 mmHg 84%
    10:00 +21°C° 0 mm 5 mps 738 mmHg 75%
    11:00 +23°C° 0 mm 6 mps 738 mmHg 66%
    12:00 +24°C° 0 mm 6 mps 737 mmHg 60%
    13:00 +27°C° 0 mm 6 mps 736 mmHg 53%
    14:00 +29°C° 0 mm 6 mps 735 mmHg 47%
    15:00 +29°C° 0 mm 5 mps 734 mmHg 47%
    16:00 +29°C° 0 mm 4 mps 734 mmHg 47%
    17:00 +29°C° 0 mm 4 mps 733 mmHg 48%
    18:00 +28°C° 0 mm 4 mps 733 mmHg 52%
    19:00 +27°C° 0 mm 3 mps 733 mmHg 56%
    20:00 +25°C° 0 mm 3 mps 733 mmHg 61%
    21:00 +25°C° 0 mm 3 mps 733 mmHg 64%
    22:00 +24°C° 0 mm 3 mps 732 mmHg 67%
    23:00 +22°C° 0 mm 3 mps 732 mmHg 70%

    Tomorrow, 21 July, Sunday

    Time Temperature Precipitation Wind Pressure Humidity
    00:00 +22°C° 0 mm 3 mps 732 mmHg 71%
    01:00 +22°C° 0 mm 4 mps 731 mmHg 71%
    02:00 +22°C° 0 mm 4 mps 730 mmHg 72%
    03:00 +22°C° 0 mm 5 mps 730 mmHg 69%
    04:00 +23°C° 0 mm 5 mps 730 mmHg 66%
    05:00 +23°C° 0 mm 5 mps 729 mmHg 63%
    06:00 +23°C° 0 mm 5 mps 730 mmHg 62%
    07:00 +23°C° 0 mm 5 mps 730 mmHg 61%
    08:00 +23°C° 0 mm 5 mps 730 mmHg 61%
    09:00 +27°C° 0 mm 6 mps 730 mmHg 54%
    10:00 +29°C° 0 mm 6 mps 731 mmHg 48%
    11:00 +32°C° 0 mm 7 mps 731 mmHg 41%
    12:00 +33°C° 0 mm 6 mps 730 mmHg 38%
    13:00 +35°C° 0 mm 5 mps 730 mmHg 34%
    14:00 +36°C° 0 mm 4 mps 729 mmHg 31%
    15:00 +35°C° 0 mm 3 mps 729 mmHg 33%
    16:00 +34°C° 0 mm 2 mps 730 mmHg 36%
    17:00 +30°C° 0 mm 0 mps 730 mmHg 39%
    18:00 +30°C° 0 mm 2 mps 731 mmHg 40%
    19:00 +29°C° 0 mm 3 mps 732 mmHg 42%
    20:00 +28°C° 0 mm 4 mps 733 mmHg 44%
    21:00 +24°C° 0 mm 6 mps 734 mmHg 47%
    22:00 +21°C° 0 mm 7 mps 735 mmHg 51%
    23:00 +18°C° 0 mm 9 mps 736 mmHg 54%

    Day after tomorrow, 22 July, Monday

    Time Temperature Precipitation Wind Pressure Humidity
    00:00 +17°C° 0 mm 9 mps 737 mmHg 49%
    01:00 +16°C° 0 mm 9 mps 738 mmHg 44%
    02:00 +15°C° 0 mm 9 mps 739 mmHg 39%
    03:00 +15°C° 0 mm 9 mps 740 mmHg 36%
    04:00 +15°C° 0 mm 8 mps 741 mmHg 33%
    05:00 +15°C° 0 mm 8 mps 742 mmHg 30%
    06:00 +15°C° 0 mm 7 mps 743 mmHg 27%
    07:00 +15°C° 0 mm 7 mps 744 mmHg 24%
    08:00 +15°C° 0 mm 6 mps 745 mmHg 21%
    09:00 +15°C° 0 mm 6 mps 745 mmHg 21%
    10:00 +15°C° 0 mm 7 mps 746 mmHg 20%
    11:00 +15°C° 0 mm 7 mps 746 mmHg 20%
    12:00 +15°C° 0 mm 6 mps 746 mmHg 20%
    13:00 +16°C° 0 mm 6 mps 745 mmHg 20%
    14:00 +16°C° 0 mm 6 mps 745 mmHg 20%
    15:00 +15°C° 0 mm 5 mps 745 mmHg 21%
    16:00 +15°C° 0 mm 5 mps 745 mmHg 22%
    17:00 +15°C° 0 mm 5 mps 745 mmHg 23%
    18:00 +14°C° 0 mm 4 mps 746 mmHg 24%
    19:00 +13°C° 0 mm 4 mps 746 mmHg 26%
    20:00 +12°C° 0 mm 3 mps 747 mmHg 28%
    21:00 +11°C° 0 mm 3 mps 747 mmHg 28%
    22:00 +11°C° 0 mm 3 mps 748 mmHg 29%
    23:00 +11°C° 0 mm 3 mps 748 mmHg 30%

    23 July, Tuesday

    Time Temperature Precipitation Wind Pressure Humidity
    00:00 +10°C° 0 mm 3 mps 748 mmHg 31%
    01:00 +10°C° 0 mm 3 mps 748 mmHg 32%
    02:00 +10°C° 0 mm 4 mps 748 mmHg 32%
    03:00 +10°C° 0 mm 4 mps 748 mmHg 32%
    04:00 +10°C° 0 mm 3 mps 748 mmHg 31%
    05:00 +11°C° 0 mm 3 mps 748 mmHg 30%
    06:00 +11°C° 0 mm 3 mps 749 mmHg 30%
    07:00 +11°C° 0 mm 3 mps 749 mmHg 30%
    08:00 +11°C° 0 mm 4 mps 750 mmHg 30%
    09:00 +11°C° 0 mm 4 mps 750 mmHg 29%
    10:00 +12°C° 0 mm 4 mps 751 mmHg 29%
    11:00 +12°C° 0 mm 5 mps 751 mmHg 28%
    12:00 +14°C° 0 mm 5 mps 750 mmHg 26%
    13:00 +15°C° 0 mm 5 mps 750 mmHg 24%
    14:00 +16°C° 0 mm 5 mps 750 mmHg 22%
    15:00 +15°C° 0 mm 5 mps 750 mmHg 23%
    16:00 +15°C° 0 mm 4 mps 750 mmHg 25%
    17:00 +15°C° 0 mm 4 mps 750 mmHg 26%
    18:00 +13°C° 0 mm 3 mps 750 mmHg 31%
    19:00 +12°C° 0 mm 2 mps 751 mmHg 36%
    20:00 +9°C° 0 mm 2 mps 752 mmHg 41%
    21:00 +9°C° 0 mm 1 mps 752 mmHg 42%
    22:00 +8°C° 0 mm 1 mps 753 mmHg 44%
    23:00 +8°C° 0 mm 1 mps 753 mmHg 45%

    24 July, Wednesday

    Time Temperature Precipitation Wind Pressure Humidity
    00:00 +8°C° 0 mm 1 mps 753 mmHg 45%
    01:00 +8°C° 0 mm 1 mps 753 mmHg 44%
    02:00 +7°C° 0 mm 2 mps 754 mmHg 44%
    03:00 +7°C° 0 mm 2 mps 753 mmHg 44%
    04:00 +6°C° 0 mm 2 mps 753 mmHg 45%
    05:00 +6°C° 0 mm 2 mps 753 mmHg 45%
    06:00 +7°C° 0 mm 2 mps 754 mmHg 45%
    07:00 +7°C° 0 mm 2 mps 754 mmHg 45%
    08:00 +8°C° 0 mm 2 mps 755 mmHg 45%
    09:00 +10°C° 0 mm 2 mps 755 mmHg 40%
    10:00 +13°C° 0 mm 2 mps 755 mmHg 34%
    11:00 +15°C° 0 mm 2 mps 756 mmHg 29%
    12:00 +16°C° 0 mm 2 mps 755 mmHg 26%
    13:00 +16°C° 0 mm 2 mps 754 mmHg 24%
    14:00 +17°C° 0 mm 2 mps 754 mmHg 21%
    15:00 +17°C° 0 mm 2 mps 753 mmHg 22%
    16:00 +17°C° 0 mm 3 mps 753 mmHg 22%
    17:00 +17°C° 0 mm 3 mps 753 mmHg 23%
    18:00 +15°C° 0 mm 2 mps 754 mmHg 26%
    19:00 +13°C° 0 mm 2 mps 754 mmHg 29%
    20:00 +10°C° 0 mm 2 mps 755 mmHg 33%
    21:00 +9°C° 0 mm 2 mps 755 mmHg 34%
    22:00 +9°C° 0 mm 2 mps 755 mmHg 36%
    23:00 +8°C° 0 mm 2 mps 755 mmHg 38%

    25 July, Thursday

    Time Temperature Precipitation Wind Pressure Humidity
    00:00 +7°C° 0 mm 2 mps 755 mmHg 41%
    01:00 +8°C° 0 mm 1 mps 755 mmHg 43%
    02:00 +7°C° 0 mm 1 mps 755 mmHg 46%
    03:00 +6°C° 0 mm 1 mps 754 mmHg 49%
    04:00 +5°C° 0 mm 1 mps 754 mmHg 52%
    05:00 +4°C° 0 mm 0 mps 754 mmHg 55%
    06:00 +6°C° 0 mm 1 mps 754 mmHg 53%
    07:00 +7°C° 0 mm 1 mps 755 mmHg 52%
    08:00 +8°C° 0 mm 1 mps 755 mmHg 50%
    09:00 +9°C° 0 mm 2 mps 755 mmHg 44%
    10:00 +12°C° 0 mm 2 mps 755 mmHg 39%
    11:00 +13°C° 0 mm 3 mps 754 mmHg 33%
    12:00 +14°C° 0 mm 3 mps 754 mmHg 30%
    13:00 +16°C° 0 mm 3 mps 753 mmHg 27%
    14:00 +17°C° 0 mm 3 mps 752 mmHg 23%
    15:00 +17°C° 0 mm 3 mps 751 mmHg 24%
    16:00 +17°C° 0 mm 3 mps 751 mmHg 25%
    17:00 +16°C° 0 mm 2 mps 751 mmHg 26%
    18:00 +15°C° 0 mm 2 mps 751 mmHg 29%
    19:00 +13°C° 0 mm 2 mps 751 mmHg 32%
    20:00 +10°C° 0 mm 3 mps 751 mmHg 35%
    21:00 +9°C° 0 mm 3 mps 751 mmHg 38%
    22:00 +9°C° 0 mm 3 mps 751 mmHg 41%
    23:00 +8°C° 0 mm 3 mps 752 mmHg 44%
    Show more